Weather History for Pipestone, MN

Change the Weather History Date:

Saturday, November 10, 2012

  Actual Average Record
Temperature  
Mean Temperature 46 °F -  
Max Temperature 57 °F 42 °F 57 °F (2001)
Min Temperature 35 °F 24 °F 14 °F (2008)
Degree Days  
Heating Degree Days 19    
Moisture  
Dew Point 45 °F    
Average Humidity 90    
Maximum Humidity 100    
Minimum Humidity 81    
Precipitation  
Precipitation 0.18 in - - ()
Sea Level Pressure  
Sea Level Pressure 29.54 in    
Wind  
Wind Speed 15 mph (SSW)    
Max Wind Speed 21 mph    
Max Gust Speed 29 mph    
Visibility 7 miles    
Events Rain , Thunderstorm    
Averages and records for this station are not official NWS values.
T = Trace of Precipitation, MM = Missing Value Source: NWS Daily Summary

Daily Weather History Graph

Daily Weather History Graph

Search for Another Location

Airport:

Trip Planner

Search our weather history database for the weather conditions in past years. The results will help you decide how hot, cold, wet, or windy it might be!

Date:

Astronomy

Nov. 10, 2012 Rise Set
Actual Time 7:14 AM CST 5:03 PM CST
Civil Twilight 6:43 AM CST 5:34 PM CST
Nautical Twilight 6:08 AM CST 6:08 PM CST
Astronomical Twilight 5:34 AM CST 6:42 PM CST
Moon 3:13 AM CST (11/10) 2:56 PM CST (11/10)
Length of Visible Light 10h 50m
Length of Day
9h 49m
Waning Crescent, 14% of the Moon is Illuminated
Nov 10
Waning Crescent
Nov 13
New
Nov 20
First Quarter
Nov 28
Full
Dec 6
Last Quarter

Hourly Weather History & Observations

Time (CST) Temp. Windchill Dew Point Humidity Pressure Visibility Wind Dir Wind Speed Gust Speed Precip Events Conditions
12:13 AM 46.4 °F 40.1 °F 41.0 °F 81% 29.71 in 7.0 mi ESE 15.0 mph 23.0 mph N/A   Overcast
12:34 AM 46.4 °F 38.7 °F 41.0 °F 81% 29.70 in 7.0 mi ESE 20.7 mph 25.3 mph N/A   Overcast
12:53 AM 46.4 °F 39.2 °F 41.0 °F 81% 29.69 in 7.0 mi ESE 18.4 mph 21.9 mph N/A   Overcast
1:13 AM 46.4 °F 39.2 °F 42.8 °F 87% 29.68 in 7.0 mi ESE 18.4 mph 24.2 mph N/A   Overcast
1:34 AM 46.4 °F 39.2 °F 42.8 °F 87% 29.66 in 7.0 mi ESE 18.4 mph 24.2 mph N/A   Mostly Cloudy
1:53 AM 46.4 °F 39.5 °F 42.8 °F 87% 29.65 in 7.0 mi ESE 17.3 mph 24.2 mph N/A   Mostly Cloudy
2:13 AM 46.4 °F 39.2 °F 42.8 °F 87% 29.64 in 7.0 mi ESE 18.4 mph 25.3 mph N/A   Overcast
2:34 AM 46.4 °F 39.2 °F 42.8 °F 87% 29.64 in 7.0 mi ESE 18.4 mph 26.5 mph N/A   Overcast
2:53 AM 46.4 °F 39.0 °F 42.8 °F 87% 29.62 in 7.0 mi ESE 19.6 mph 26.5 mph N/A   Overcast
3:13 AM 48.2 °F - 42.8 °F 82% 29.62 in 7.0 mi ESE 19.6 mph 23.0 mph N/A   Overcast
3:33 AM 48.2 °F - 44.6 °F 87% 29.61 in 7.0 mi ESE 17.3 mph 23.0 mph N/A   Overcast
3:53 AM 48.2 °F - 44.6 °F 87% 29.60 in 7.0 mi SE 17.3 mph 24.2 mph N/A   Overcast
4:13 AM 48.2 °F - 44.6 °F 87% 29.60 in 7.0 mi ESE 15.0 mph 20.7 mph N/A   Overcast
4:33 AM 48.2 °F - 44.6 °F 87% 29.58 in 5.0 mi SE 13.8 mph 19.6 mph N/A   Overcast
4:53 AM 48.2 °F - 46.4 °F 93% 29.58 in 5.0 mi SE 13.8 mph - N/A   Overcast
5:13 AM 48.2 °F - 46.4 °F 93% 29.57 in 5.0 mi SE 11.5 mph - N/A   Overcast
5:53 AM 50.0 °F - 46.4 °F 87% 29.56 in 5.0 mi ESE 9.2 mph - N/A   Overcast
6:13 AM 50.0 °F - 46.4 °F 87% 29.56 in 5.0 mi ESE 8.1 mph - N/A   Overcast
6:33 AM 50.0 °F - 48.2 °F 94% 29.55 in 5.0 mi ESE 8.1 mph - N/A   Overcast
6:53 AM 51.8 °F - 48.2 °F 88% 29.55 in 5.0 mi ESE 8.1 mph - N/A   Overcast
7:13 AM 51.8 °F - 48.2 °F 88% 29.54 in 5.0 mi ESE 9.2 mph - N/A   Overcast
7:33 AM 51.8 °F - 48.2 °F 88% 29.53 in 4.0 mi SE 8.1 mph - N/A   Overcast
7:53 AM 53.6 °F - 51.8 °F 94% 29.52 in 4.0 mi SSE 12.7 mph - N/A   Overcast
8:13 AM 53.6 °F - 51.8 °F 94% 29.53 in 3.0 mi SSE 12.7 mph 18.4 mph N/A   Overcast
8:33 AM 53.6 °F - 51.8 °F 94% 29.52 in 3.0 mi SSE 11.5 mph - N/A   Overcast
8:53 AM 53.6 °F - 51.8 °F 94% 29.51 in 3.0 mi SSE 13.8 mph 17.3 mph N/A   Overcast
9:14 AM 53.6 °F - 53.6 °F 100% 29.51 in 3.0 mi South 12.7 mph - N/A   Overcast
9:33 AM 55.4 °F - 53.6 °F 94% 29.51 in 4.0 mi South 13.8 mph 18.4 mph N/A   Overcast
9:53 AM 55.4 °F - 53.6 °F 94% 29.50 in 5.0 mi South 15.0 mph - N/A   Overcast
10:14 AM 57.2 °F - 53.6 °F 88% 29.49 in 10.0 mi SSW 15.0 mph - N/A   Overcast
10:33 AM 57.2 °F - 51.8 °F 82% 29.49 in 10.0 mi SSW 18.4 mph 23.0 mph N/A   Overcast
10:53 AM 55.4 °F - 51.8 °F 88% 29.50 in 10.0 mi SSW 17.3 mph - N/A   Overcast
11:13 AM 55.4 °F - 51.8 °F 88% 29.51 in 10.0 mi SW 19.6 mph 24.2 mph N/A   Overcast
11:33 AM 53.6 °F - 50.0 °F 88% 29.50 in 10.0 mi SW 18.4 mph - N/A   Overcast
11:53 AM 53.6 °F - 48.2 °F 82% 29.49 in 7.0 mi SW 15.0 mph - N/A   Overcast
12:13 PM 51.8 °F - 48.2 °F 88% 29.50 in 7.0 mi SW 17.3 mph - N/A   Overcast
12:33 PM 50.0 °F - 46.4 °F 87% 29.50 in 4.0 mi SW 13.8 mph - N/A   Overcast
12:53 PM 48.2 °F - 46.4 °F 93% 29.51 in 4.0 mi SW 17.3 mph - N/A   Overcast
1:13 PM 48.2 °F - 46.4 °F 93% 29.50 in 4.0 mi SW 15.0 mph 19.6 mph N/A   Overcast
1:33 PM 50.0 °F - 46.4 °F 87% 29.48 in 5.0 mi SW 11.5 mph - N/A   Overcast
1:53 PM 50.0 °F - 46.4 °F 87% 29.47 in 7.0 mi WSW 10.4 mph - N/A   Overcast
2:13 PM 50.0 °F - 46.4 °F 87% 29.49 in 7.0 mi SW 15.0 mph - N/A   Overcast
2:33 PM 50.0 °F - 46.4 °F 87% 29.49 in 7.0 mi SW 15.0 mph - N/A   Overcast
2:53 PM 48.2 °F - 46.4 °F 93% 29.50 in 4.0 mi SSW 17.3 mph 23.0 mph N/A   Overcast
3:13 PM 48.2 °F - 46.4 °F 93% 29.51 in 5.0 mi SSW 18.4 mph 24.2 mph N/A   Overcast
3:33 PM 48.2 °F - 46.4 °F 93% 29.50 in 5.0 mi WSW 10.4 mph - N/A   Overcast
3:53 PM 48.2 °F - 46.4 °F 93% 29.49 in 5.0 mi WSW 10.4 mph - N/A   Overcast
4:13 PM 48.2 °F - 46.4 °F 93% 29.50 in 5.0 mi West 10.4 mph - N/A   Overcast
4:33 PM 50.0 °F - 46.4 °F 87% 29.50 in 7.0 mi West 9.2 mph - N/A   Overcast
4:53 PM 50.0 °F - 44.6 °F 82% 29.50 in 10.0 mi West 6.9 mph - N/A   Mostly Cloudy
5:13 PM 48.2 °F - 44.6 °F 87% 29.48 in 10.0 mi West 3.5 mph - N/A   Scattered Clouds
5:33 PM 46.4 °F - 42.8 °F 87% 29.47 in 7.0 mi Calm Calm - N/A   Clear
5:53 PM 46.4 °F - 42.8 °F 87% 29.46 in 7.0 mi Calm Calm - N/A   Mostly Cloudy
6:13 PM 46.4 °F - 44.6 °F 93% 29.46 in 7.0 mi Calm Calm - N/A   Overcast
6:33 PM 46.4 °F - 44.6 °F 93% 29.46 in 7.0 mi Calm Calm - N/A   Overcast
6:53 PM 48.2 °F - 44.6 °F 87% 29.53 in 7.0 mi WNW 19.6 mph 26.5 mph N/A Thunderstorm Overcast
7:13 PM 46.4 °F 42.9 °F 44.6 °F 93% 29.51 in 4.0 mi WNW 6.9 mph 10.4 mph N/A Rain , Thunderstorm Light Thunderstorms and Rain
7:33 PM 46.4 °F 42.4 °F 44.6 °F 93% 29.50 in 2.0 mi WNW 8.1 mph - 0.11 in Rain , Thunderstorm Heavy Thunderstorms and Rain
7:53 PM 46.4 °F 44.3 °F 44.6 °F 93% 29.49 in 4.0 mi West 4.6 mph - 0.10 in Rain , Thunderstorm Rain
8:13 PM 46.4 °F 41.5 °F 44.6 °F 93% 29.50 in 4.0 mi WNW 10.4 mph - 0.05 in Rain Light Rain
8:33 PM 44.6 °F 37.4 °F 44.6 °F 100% 29.50 in 10.0 mi NW 16.1 mph 20.7 mph N/A   Overcast
8:53 PM 44.6 °F 38.1 °F 42.8 °F 93% 29.50 in 10.0 mi WNW 13.8 mph 20.7 mph N/A Rain Light Rain
9:13 PM 42.8 °F 34.5 °F 41.0 °F 93% 29.52 in 10.0 mi NW 18.4 mph - N/A Rain Light Rain
9:33 PM 42.8 °F 36.2 °F 41.0 °F 93% 29.51 in 10.0 mi NW 12.7 mph 18.4 mph 0.01 in Rain Light Rain
10:13 PM 39.2 °F 30.2 °F 39.2 °F 100% 29.56 in 10.0 mi WNW 17.3 mph 23.0 mph N/A   Overcast
10:33 PM 37.4 °F 26.9 °F 35.6 °F 93% 29.56 in 10.0 mi NW 20.7 mph 28.8 mph 0.01 in   Overcast
11:13 PM 35.6 °F 25.2 °F 33.8 °F 93% 29.60 in 10.0 mi NW 18.4 mph 26.5 mph N/A   Overcast
11:34 PM 35.6 °F 25.9 °F 33.8 °F 93% 29.63 in 10.0 mi NW 16.1 mph 25.3 mph N/A   Overcast
11:53 PM 35.6 °F 24.8 °F 33.8 °F 93% 29.65 in 10.0 mi NW 19.6 mph 26.5 mph N/A   Overcast